TimePDT,TemperatureF,Dew PointF,Humidity,Sea Level PressureIn,VisibilityMPH,Wind Direction,Wind SpeedMPH,Gust SpeedMPH,PrecipitationIn,Events,Conditions,WindDirDegrees,DateUTC
12:54 AM,55.0,50.0,83,30.04,10.0,SSW,5.8,-,N/A,,Mostly Cloudy,200,2013-05-29 07:54:00
1:08 AM,55.4,50.0,82,30.00,10.0,WSW,3.5,-,N/A,,Scattered Clouds,240,2013-05-29 08:08:00
1:54 AM,54.0,48.9,83,30.03,10.0,South,5.8,-,N/A,,Scattered Clouds,180,2013-05-29 08:54:00
2:24 AM,53.6,50.0,88,29.99,10.0,SSW,5.8,-,N/A,,Mostly Cloudy,200,2013-05-29 09:24:00
2:52 AM,53.6,50.0,88,29.99,10.0,WSW,4.6,-,N/A,,Overcast,240,2013-05-29 09:52:00
2:54 AM,54.0,50.0,86,30.03,10.0,WSW,4.6,-,N/A,,Overcast,250,2013-05-29 09:54:00
3:17 AM,53.6,50.0,88,29.98,10.0,Calm,Calm,-,N/A,,Scattered Clouds,0,2013-05-29 10:17:00
3:54 AM,54.0,48.9,83,30.01,10.0,South,5.8,-,N/A,,Clear,190,2013-05-29 10:54:00
4:13 AM,53.6,48.2,82,29.98,10.0,SSW,6.9,-,N/A,,Partly Cloudy,210,2013-05-29 11:13:00
4:54 AM,54.0,50.0,86,30.03,10.0,South,5.8,-,N/A,,Overcast,190,2013-05-29 11:54:00
5:54 AM,55.9,48.0,75,30.01,10.0,Calm,Calm,-,N/A,,Overcast,0,2013-05-29 12:54:00
6:19 AM,57.2,48.2,72,29.98,10.0,Calm,Calm,-,N/A,,Overcast,0,2013-05-29 13:19:00
6:52 AM,57.2,46.4,67,29.98,10.0,Calm,Calm,-,N/A,,Overcast,0,2013-05-29 13:52:00
6:54 AM,57.9,48.0,70,30.01,10.0,Calm,Calm,-,N/A,,Overcast,0,2013-05-29 13:54:00
7:03 AM,57.2,48.2,72,29.98,10.0,NW,4.6,-,N/A,,Overcast,310,2013-05-29 14:03:00
7:30 AM,57.2,48.2,72,29.98,10.0,Calm,Calm,-,N/A,,Overcast,0,2013-05-29 14:30:00
7:54 AM,59.0,48.9,69,30.02,10.0,NNW,3.5,-,N/A,,Overcast,330,2013-05-29 14:54:00
8:54 AM,61.0,51.1,70,30.02,10.0,WNW,4.6,-,N/A,,Scattered Clouds,300,2013-05-29 15:54:00
9:54 AM,62.1,50.0,65,30.03,10.0,WNW,4.6,-,N/A,,Mostly Cloudy,290,2013-05-29 16:54:00
10:54 AM,64.0,52.0,65,30.03,10.0,WNW,5.8,-,N/A,,Partly Cloudy,290,2013-05-29 17:54:00
11:54 AM,64.0,54.0,70,30.03,10.0,West,10.4,-,N/A,,Clear,280,2013-05-29 18:54:00
12:54 PM,64.0,54.0,70,30.02,10.0,West,11.5,18.4,N/A,,Scattered Clouds,280,2013-05-29 19:54:00
1:54 PM,64.9,54.0,68,30.01,10.0,West,13.8,20.7,N/A,,Scattered Clouds,260,2013-05-29 20:54:00
2:54 PM,63.0,51.1,65,30.01,10.0,West,13.8,20.7,N/A,,Clear,270,2013-05-29 21:54:00
3:54 PM,63.0,51.1,65,30.01,10.0,WSW,12.7,20.7,N/A,,Clear,250,2013-05-29 22:54:00
4:54 PM,61.0,50.0,67,30.00,10.0,Variable,6.9,19.6,N/A,,Clear,0,2013-05-29 23:54:00
5:54 PM,61.0,48.9,64,30.01,10.0,SW,9.2,17.3,N/A,,Clear,220,2013-05-30 00:54:00
6:54 PM,57.9,48.9,72,30.01,10.0,SSW,11.5,24.2,N/A,,Clear,210,2013-05-30 01:54:00
7:54 PM,57.0,48.0,72,30.02,10.0,West,6.9,-,N/A,,Partly Cloudy,260,2013-05-30 02:54:00
8:54 PM,55.0,48.0,77,30.03,10.0,SW,6.9,-,N/A,,Partly Cloudy,220,2013-05-30 03:54:00
9:54 PM,54.0,46.9,77,30.04,10.0,Variable,5.8,-,N/A,,Partly Cloudy,0,2013-05-30 04:54:00
10:54 PM,53.1,46.9,80,30.04,10.0,South,3.5,-,N/A,,Clear,180,2013-05-30 05:54:00
11:54 PM,53.1,46.0,77,30.03,10.0,South,4.6,-,N/A,,Clear,170,2013-05-30 06:54:00